Regional Weather Roundup
Issued by NWS Grand Forks, ND

Home | Current Version | Previous Version | Graphics & Text | Print | Product List | Glossary On
Versions: 1 2 3 4 5 6 7 8 9 10 11 12 13 14 15 16 17 18 19 20 21 22 23 24 25 26 27 28 29 30 31 32 33 34 35 36 37 38 39 40 41 42 43 44 45 46 47 48 49 50
000
ASUS43 KFGF 310331
RWRFGF
PRAIRIE TO PINES  WEATHER ROUNDUP
NATIONAL WEATHER SERVICE EASTERN NORTH DAKOTA/GRAND FORKS ND
1000 PM CDT SUN AUG 30 2015

 **SATELLITE DATA USED TO AUGMENT SKY COVER AT AUTOMATED STATIONS**
 *****  WEATHER ACROSS EASTERN NORTH DAKOTA  *****

CITY           SKY/WX    TMP DP  RH WIND       PRES   REMARKS
GRAND FORKS    PTCLDY    76  69  79 S14       29.66R
GRAND FRKS AFB PTCLDY    77  69  77 S15       29.66S
GRAND FRKS NWS   N/A     75 N/A N/A S15         N/A
DEVILS LAKE    CLEAR     75  64  69 S10       29.66R
FARGO          PTCLDY    76  68  76 S18G24    29.72R
WAHPETON ARPT  PTCLDY    70  63  78 SE14      29.77S
$$

 ***** WEATHER ACROSS CENTRAL AND WESTERN NORTH DAKOTA  *****

CITY           SKY/WX    TMP DP  RH WIND       PRES   REMARKS
BISMARCK       PTCLDY    80  56  43 N9        29.65R
MINOT          MOCLDY    69  54  58 NW9       29.68R
JAMESTOWN      PTCLDY    75  68  78 S14       29.69R
MINOT AFB      MOCLDY    68  56  66 NW6       29.67S
GARRISON         N/A     71  58  63 NW9       29.68S
WILLISTON      MOCLDY    66  49  54 N3        29.71S
DICKINSON      MOCLDY    70  51  51 NE8       29.71S
HETTINGER      MOCLDY    74  52  46 N10       29.72F
$$

 *****  OTHER AIRPORT OBSERVATIONS IN OUR AREA  *****

CITY           SKY/WX    TMP DP  RH WIND       PRES   REMARKS
WALHALLA       FAIR      77  68  73 MISG      29.62R
GRAFTON AIRPOR FAIR      75  72  88 S17       29.65S
VALLEY CITY AR MOCLDY    75  72  88 S15G21    29.71S
CANDO          FAIR      68  66  94 S6        29.66R
CAVALIER APRT  FAIR      77  72  83 S9        29.62S
GWINNER        FAIR      72  66  83 S10       29.73F
SHEYENNE NWR     N/A     74  67  79 S9        29.95S
ROLLA          FAIR      72  63  73 N8        29.67S
 ***** THE ABOVE OBSERVATIONS ARE NON NWS ARE NOT QUALITY
       CONTROLLED AND MAY MIS-REPORT RAIN FOR SNOW...
$$

  *****  WEATHER ACROSS NORTHERN MINNESOTA  *****

CITY           SKY/WX    TMP DP  RH WIND       PRES   REMARKS
FLAG ISLAND    PTCLDY    72  68  88 S16       29.69F
WARROAD        MOCLDY    73  70  88 S10       29.71S
ROSEAU         MOCLDY    75  68  78 S12       29.69S
HALLOCK        PTCLDY    77  70  78 S18G24    29.64S
THF RVR FALLS  MOCLDY   N/A N/A N/A S12       29.72S
BAUDETTE       MOCLDY    72  68  87 S9        29.74F
WASKISH        MOCLDY    72  68  88 S10G16    29.77S
CROOKSTON      PTCLDY    75  68  78 S17       29.71S
STEPHEN NDAWN    N/A     75  70  83 S16         N/A
GREENBUSH NDAW   N/A     73  66  78 S12         N/A
$$
  *****  WEATHER ACROSS CENTRAL AND WEST MINNESOTA  *****

CITY           SKY/WX    TMP DP  RH WIND       PRES   REMARKS
FOSSTON        PTCLDY    70  64  83 S13       29.77S
BEMIDJI        PTCLDY    72  67  85 S12       29.80F
PARK RAPIDS      N/A     73  67  81 S12       29.83S
ELBOW LAKE     FAIR      69  65  84 S15       29.82R
WADENA         MOCLDY    70  64  83 S9        29.84S
DETROIT LAKES  MOCLDY    72  64  78 S14       29.81S
MOORHEAD       PTCLDY    73  66  78 S16G22    29.75S
FERGUS FALLS   MOCLDY    72  64  78 S14       29.79S
MORRIS MN      MOCLDY    68  64  88 SE9       29.83R
STAPLES        FAIR      70  64  83 S9        29.86S
$$
  *****  WEATHER ELSEWHERE ACROSS MINNESOTA  *****

CITY           SKY/WX    TMP DP  RH WIND       PRES   REMARKS
DULUTH         CLEAR     69  64  84 SW9       29.90S
INTRNTL FALLS  MOCLDY    71  67  87 CALM      29.79S
ELY            CLEAR     70  64  83 SW7       29.87S
CLOQUET        CLEAR     68  63  83 S7        29.90S
WHEATON        PTCLDY    66  63  88 SE10      29.80S
BRAINERD       CLEAR     69  65  86 S9        29.87S
HIBBING        CLEAR     69  65  86 SE5       29.87S
ALEXANDRIA     PTCLDY    71  65  81 S16       29.87S
SAINT CLOUD    CLEAR     68  66  93 S8        29.90R
MINNEAPOLIS    MOCLDY    72  66  81 S10       29.94R
$$

  *****  WEATHER ACROSS SOUTH DAKOTA  *****

CITY           SKY/WX    TMP DP  RH WIND       PRES   REMARKS
SIOUX FALLS    MOCLDY    67  64  90 S12       29.91S
BROOKINGS      PTCLDY    64  61  88 S15       29.90S
WATERTOWN      PTCLDY    68  63  84 S17       29.84R
HURON          PTCLDY    71  66  84 S17G25    29.79R
SISSETON         N/A     68  64  87 S8        29.76S
ABERDEEN       CLEAR     73  67  81 S21G28    29.74R
MITCHELL       PTCLDY    70  66  87 SE15      29.83S
PIERRE         CLEAR     80  53  39 E16       29.70R
MOBRIDGE       CLEAR     78  59  51 S12       29.65R
RAPID CITY     CLOUDY    75  57  53 N8        29.77F
$$

  *****  SOME WEATHER IN NEARBY STATES *****

CITY           SKY/WX    TMP DP  RH WIND       PRES   REMARKS
GLASGOW MT     MOCLDY    64  56  75 SW9       29.75R
GREAT FALLS MT CLOUDY    62  38  40 W32G41    29.87R
CHEYENNE WY    MOCLDY    72  44  36 W5        30.06R
SCOTTSBLUFF NE MOCLDY    80  49  33 NW13      29.86R
OMAHA NE       PTCLDY    68  66  93 SE5       29.97R
DES MOINES IA  PTCLDY    72  68  87 SE7       29.98S
DAVENPORT IA   CLEAR     64  62  93 E5        30.03R
CHICAGO IL     CLEAR     65  63  93 SE7       30.04S
EAU CLAIRE WI  CLEAR     66  63  90 S5        29.96F
LA CROSSE WI   CLEAR     67  63  87 S5        29.98S
$$

  *****  SOME NATIONAL WEATHER *****

CITY           SKY/WX    TMP DP  RH WIND       PRES   REMARKS
LA GUARDIA NY  CLOUDY    78  69  73 SW6       30.03R
RALEIGH NC     CLOUDY    73  65  75 SW6       30.14F
ATLANTA GA     CLOUDY    70  64  83 E10       30.11S
NEW ORLEANS LA PTCLDY    81  68  64 SW8       30.01R
OKLAHOMA CITY  PTCLDY    76  65  68 E7        29.94R
ALBUQUERQUE NM PTCLDY    84  43  23 S7        30.09R
SALT LAKE CITY MOCLDY    77  46  33 S5        29.92R
LOS ANGELES CA PTCLDY    72  63  73 W7        29.82S
BOISE ID       CLEAR     71  39  31 N6        29.95R
SEATTLE WA     MOCLDY    63  51  65 SW12      30.00R
$$

*** WEATHER ACROSS MANITOBA...SASKATCHEWAN AND ONTARIO ***
                ***ONTARIO***

CITY           SKY/WX    TMP DP  RH WIND       PRES   REMARKS
GERALDTON      MOCLDY    64  63  94 S2        29.85S
THUNDER BAY    PTCLDY    59  57  94 W2        29.85R
SIOUX LOOKOUT  PTCLDY    70  68  94 S6        29.80S
TORONTO        PTCLDY    72  64  78 SW2       30.01F
BIG TROUT LK   CLOUDY    52  48  87 E10       29.88F
PICKLE LAKE    NOT AVBL
DRYDEN         CLEAR     73  68  83 SE9       29.78F
KENORA         MOCLDY    73  70  88 S12       29.73F
$$
                *** MANITOBA***

CITY           SKY/WX    TMP DP  RH WIND       PRES   REMARKS
BRANDON        MOCLDY    68  59  73 NW8       29.63R SMOKE
DAUPHIN        CLEAR     66  63  88 W7        29.60S FOG
ISLAND LAKE    LGT RAIN  61  59  94 NE10G21   29.71F
PILOT MOUND      N/A     75  66  73 W7          N/A
THE PAS        CLOUDY    64  63  94 SE12      29.57F
THOMPSON       LGT RAIN  55  54  94 S2        29.71R
WINNIPEG       MOCLDY    77  70  78 S15G21    29.58S
LYNN LAKE      CLOUDY    55  55 100 MISG      29.58R
CHURCHILL      MOCLDY    46  43  87 SE16      29.91R
$$
                ***SASKATCHEWAN***

CITY           SKY/WX    TMP DP  RH WIND       PRES   REMARKS
ESTEVAN        MOCLDY    64  50  59 SE3       29.69F
KINDERSLEY     PTCLDY    64  39  39 SW17G23   29.58R
LLOYDMINSTER   MOCLDY    61  46  59 S8        29.47S
PRINCE ALBERT  PTCLDY    64  52  63 S8        29.52R
REGINA         MOCLDY    63  57  82 SE9       29.66F
YORKTON        CLEAR     63  54  72 S7        29.67R
N. BATTLEFORD    N/A     59  45  58 SE9       29.52S
LA RONGE       PTCLDY    68  54  60 S10       29.45S
SASKATOON      PTCLDY    66  43  42 SW9       29.58R
SWIFT CURRENT  PTCLDY    64  39  39 SW9       29.66R
$$
NOTE: THESE ARE AUTOMATED STATIONS WITH LIMITED QUALITY CONTROL
      "FAIR" INDICATES FEW OR NO CLOUDS BELOW 12,000 FEET WITH NO
      SIGNIFICANT WEATHER AND/OR OBSTRUCTIONS TO VISIBILITY.
      SKY/WX - SKY CONDITION AND SIGNIFICANT WEATHER.
      TMP - AIR TEMPERATURE.    DP   - DEWPOINT TEMPERATURE.
      RH  - RELATIVE HUMIDITY.  PRES - PRESSURE.
      HX  - HEAT INDEX.         WCI  - WIND CHILL INDEX.
$


USA.gov is the U.S. government's official web portal to all federal, state and local government web resources and services.